When you browse on this site, cookies collect data to enhance your experience and personalize the content and advertising you see.
Visit our Privacy Policy to learn more. By continuing to use the site, you agree to this use of cookies and data.
  • Em Portugal
  • Lista de países
  • Para 7 dias
  • Temperatura da água
  • Mapas de satélite
  • Mapa do tempo
  • Widgets de tempo
  • user-avatar
    Iniciar Sessão

    Previsão horária em Slonowice

    Hoje, 17 Junho, Segunda-feira

    Tempo Temperatura Precipitação Vento Pressão Humidade
    00:00 +18°C° 0 mm 3 m/s 744 mmHg 93%
    01:00 +18°C° 0 mm 4 m/s 745 mmHg 93%
    02:00 +18°C° 0 mm 3 m/s 745 mmHg 92%
    03:00 +17°C° 0 mm 3 m/s 745 mmHg 92%
    04:00 +17°C° 0 mm 2 m/s 745 mmHg 92%
    05:00 +17°C° 0 mm 2 m/s 745 mmHg 87%
    06:00 +18°C° 0 mm 2 m/s 745 mmHg 83%
    07:00 +18°C° 0 mm 3 m/s 746 mmHg 78%
    08:00 +20°C° 0 mm 3 m/s 746 mmHg 71%
    09:00 +21°C° 0 mm 3 m/s 746 mmHg 65%
    10:00 +22°C° 0 mm 3 m/s 746 mmHg 58%
    11:00 +24°C° 0 mm 3 m/s 746 mmHg 56%
    12:00 +24°C° 0 mm 3 m/s 745 mmHg 55%
    13:00 +25°C° 0 mm 3 m/s 745 mmHg 53%
    14:00 +25°C° 0 mm 3 m/s 745 mmHg 55%
    15:00 +25°C° 0 mm 3 m/s 745 mmHg 57%
    16:00 +25°C° 0 mm 3 m/s 745 mmHg 59%
    17:00 +24°C° 0 mm 3 m/s 745 mmHg 65%
    18:00 +22°C° 0 mm 3 m/s 745 mmHg 71%
    19:00 +20°C° 0 mm 2 m/s 745 mmHg 77%
    20:00 +19°C° 0 mm 2 m/s 745 mmHg 80%
    21:00 +18°C° 0 mm 2 m/s 745 mmHg 83%
    22:00 +17°C° 0 mm 3 m/s 745 mmHg 86%
    23:00 +17°C° 0 mm 2 m/s 745 mmHg 89%

    Amanhã, 18 Junho, Terça-feira

    Tempo Temperatura Precipitação Vento Pressão Humidade
    00:00 +17°C° 0 mm 2 m/s 745 mmHg 92%
    01:00 +16°C° 0 mm 2 m/s 745 mmHg 95%
    02:00 +16°C° 0 mm 2 m/s 745 mmHg 95%
    03:00 +16°C° 0 mm 2 m/s 744 mmHg 96%
    04:00 +15°C° 0 mm 2 m/s 744 mmHg 96%
    05:00 +17°C° 0 mm 3 m/s 744 mmHg 92%
    06:00 +18°C° 0 mm 3 m/s 744 mmHg 88%
    07:00 +19°C° 0 mm 4 m/s 745 mmHg 83%
    08:00 +20°C° 0 mm 4 m/s 745 mmHg 82%
    09:00 +20°C° 0 mm 4 m/s 744 mmHg 81%
    10:00 +21°C° 0 mm 4 m/s 744 mmHg 80%
    11:00 +22°C° 0 mm 4 m/s 744 mmHg 78%
    12:00 +22°C° 0 mm 4 m/s 744 mmHg 76%
    13:00 +23°C° 0 mm 4 m/s 743 mmHg 73%
    14:00 +23°C° 0 mm 4 m/s 743 mmHg 75%
    15:00 +23°C° 0 mm 4 m/s 743 mmHg 76%
    16:00 +25°C° 0 mm 4 m/s 743 mmHg 77%
    17:00 +23°C° 0.2 mm 4 m/s 742 mmHg 80%
    18:00 +23°C° 0.2 mm 4 m/s 742 mmHg 82%
    19:00 +22°C° 0.2 mm 3 m/s 742 mmHg 85%
    20:00 +21°C° 1 mm 4 m/s 742 mmHg 87%
    21:00 +21°C° 1 mm 5 m/s 742 mmHg 90%
    22:00 +20°C° 1 mm 5 m/s 742 mmHg 93%
    23:00 +20°C° 0 mm 5 m/s 741 mmHg 94%

    Depois de amanhã, 19 Junho, Quarta-feira

    Tempo Temperatura Precipitação Vento Pressão Humidade
    00:00 +19°C° 0 mm 5 m/s 741 mmHg 94%
    01:00 +19°C° 0 mm 4 m/s 741 mmHg 95%
    02:00 +19°C° 0.1 mm 4 m/s 740 mmHg 96%
    03:00 +19°C° 0.1 mm 3 m/s 740 mmHg 96%
    04:00 +18°C° 0.1 mm 2 m/s 740 mmHg 97%
    05:00 +19°C° 0 mm 2 m/s 740 mmHg 94%
    06:00 +20°C° 0 mm 2 m/s 740 mmHg 91%
    07:00 +21°C° 0 mm 2 m/s 740 mmHg 88%
    08:00 +24°C° 0.2 mm 1 m/s 740 mmHg 82%
    09:00 +25°C° 0.2 mm 1 m/s 740 mmHg 77%
    10:00 +26°C° 0.2 mm 1 m/s 740 mmHg 71%
    11:00 +27°C° 1.4 mm 2 m/s 740 mmHg 70%
    12:00 +27°C° 1.4 mm 2 m/s 739 mmHg 68%
    13:00 +28°C° 1.4 mm 2 m/s 739 mmHg 66%
    14:00 +28°C° 0.2 mm 2 m/s 739 mmHg 63%
    15:00 +29°C° 0.2 mm 2 m/s 739 mmHg 61%
    16:00 +29°C° 0.2 mm 2 m/s 739 mmHg 59%
    17:00 +28°C° 0.1 mm 1 m/s 739 mmHg 65%
    18:00 +26°C° 0.1 mm 1 m/s 739 mmHg 71%
    19:00 +25°C° 0.1 mm 1 m/s 739 mmHg 77%
    20:00 +24°C° 0 mm 1 m/s 739 mmHg 79%
    21:00 +23°C° 0 mm 1 m/s 739 mmHg 82%
    22:00 +22°C° 0 mm 1 m/s 740 mmHg 84%
    23:00 +21°C° 0 mm 1 m/s 739 mmHg 85%

    20 Junho, Quinta-feira

    Tempo Temperatura Precipitação Vento Pressão Humidade
    00:00 +21°C° 0 mm 1 m/s 739 mmHg 85%
    01:00 +21°C° 0 mm 1 m/s 739 mmHg 85%
    02:00 +20°C° 0 mm 1 m/s 739 mmHg 85%
    03:00 +20°C° 0 mm 1 m/s 739 mmHg 85%
    04:00 +20°C° 0 mm 1 m/s 740 mmHg 85%
    05:00 +21°C° 0 mm 1 m/s 740 mmHg 82%
    06:00 +23°C° 0 mm 1 m/s 740 mmHg 78%
    07:00 +25°C° 0 mm 1 m/s 740 mmHg 75%
    08:00 +26°C° 0.1 mm 1 m/s 740 mmHg 70%
    09:00 +25°C° 0.1 mm 0 m/s 740 mmHg 66%
    10:00 +27°C° 0.1 mm 0 m/s 740 mmHg 61%
    11:00 +29°C° 0.4 mm 1 m/s 740 mmHg 60%
    12:00 +29°C° 0.4 mm 1 m/s 740 mmHg 59%
    13:00 +29°C° 0.4 mm 1 m/s 740 mmHg 58%
    14:00 +28°C° 0.8 mm 1 m/s 740 mmHg 64%
    15:00 +27°C° 0.8 mm 2 m/s 740 mmHg 70%
    16:00 +25°C° 0.8 mm 2 m/s 740 mmHg 77%
    17:00 +24°C° 0.3 mm 1 m/s 740 mmHg 78%
    18:00 +24°C° 0.3 mm 1 m/s 740 mmHg 79%
    19:00 +23°C° 0.3 mm 1 m/s 739 mmHg 80%
    20:00 +22°C° 0.2 mm 1 m/s 740 mmHg 83%
    21:00 +21°C° 0.2 mm 1 m/s 740 mmHg 86%
    22:00 +20°C° 0.2 mm 1 m/s 740 mmHg 89%
    23:00 +20°C° 0 mm 1 m/s 740 mmHg 91%

    21 Junho, Sexta-feira

    Tempo Temperatura Precipitação Vento Pressão Humidade
    00:00 +20°C° 0 mm 1 m/s 740 mmHg 92%
    01:00 +17°C° 0 mm 0 m/s 740 mmHg 93%
    02:00 +17°C° 0 mm 0 m/s 740 mmHg 93%
    03:00 +17°C° 0 mm 0 m/s 740 mmHg 94%
    04:00 +17°C° 0 mm 0 m/s 740 mmHg 94%
    05:00 +21°C° 0 mm 1 m/s 740 mmHg 91%
    06:00 +22°C° 0 mm 1 m/s 740 mmHg 88%
    07:00 +23°C° 0 mm 2 m/s 741 mmHg 84%
    08:00 +24°C° 0 mm 1 m/s 741 mmHg 79%
    09:00 +26°C° 0 mm 1 m/s 741 mmHg 73%
    10:00 +27°C° 0 mm 1 m/s 741 mmHg 67%
    11:00 +28°C° 0 mm 1 m/s 741 mmHg 63%
    12:00 +29°C° 0 mm 1 m/s 740 mmHg 59%
    13:00 +30°C° 0 mm 1 m/s 740 mmHg 55%
    14:00 +30°C° 0.1 mm 1 m/s 740 mmHg 56%
    15:00 +30°C° 0.1 mm 1 m/s 740 mmHg 56%
    16:00 +28°C° 0.1 mm 0 m/s 740 mmHg 56%
    17:00 +27°C° 0.1 mm 0 m/s 740 mmHg 61%
    18:00 +25°C° 0.1 mm 0 m/s 740 mmHg 66%
    19:00 +24°C° 0.1 mm 0 m/s 740 mmHg 71%
    20:00 +25°C° 0.2 mm 1 m/s 740 mmHg 75%
    21:00 +24°C° 0.2 mm 1 m/s 740 mmHg 78%
    22:00 +23°C° 0.2 mm 1 m/s 740 mmHg 81%
    23:00 +22°C° 0.1 mm 1 m/s 740 mmHg 84%

    22 Junho, Sábado

    Tempo Temperatura Precipitação Vento Pressão Humidade
    00:00 +21°C° 0.1 mm 1 m/s 740 mmHg 86%
    01:00 +21°C° 0.1 mm 1 m/s 740 mmHg 89%
    02:00 +21°C° 0 mm 1 m/s 739 mmHg 90%
    03:00 +20°C° 0 mm 1 m/s 739 mmHg 91%
    04:00 +18°C° 0 mm 0 m/s 739 mmHg 92%
    05:00 +21°C° 0 mm 1 m/s 739 mmHg 88%
    06:00 +23°C° 0 mm 1 m/s 739 mmHg 84%
    07:00 +24°C° 0 mm 1 m/s 739 mmHg 80%
    08:00 +25°C° 0.1 mm 1 m/s 739 mmHg 75%
    09:00 +27°C° 0.1 mm 2 m/s 739 mmHg 70%
    10:00 +28°C° 0.1 mm 2 m/s 739 mmHg 65%
    11:00 +29°C° 0 mm 2 m/s 739 mmHg 60%
    12:00 +30°C° 0 mm 1 m/s 739 mmHg 55%
    13:00 +31°C° 0 mm 1 m/s 738 mmHg 50%
    14:00 +31°C° 0 mm 1 m/s 738 mmHg 51%
    15:00 +31°C° 0 mm 1 m/s 738 mmHg 52%
    16:00 +31°C° 0 mm 1 m/s 738 mmHg 53%
    17:00 +29°C° 0.4 mm 2 m/s 738 mmHg 62%
    18:00 +27°C° 0.4 mm 3 m/s 738 mmHg 70%
    19:00 +25°C° 0.4 mm 3 m/s 738 mmHg 78%
    20:00 +23°C° 0.3 mm 4 m/s 738 mmHg 81%
    21:00 +21°C° 0.3 mm 4 m/s 738 mmHg 84%
    22:00 +20°C° 0.3 mm 4 m/s 739 mmHg 87%
    23:00 +19°C° 0 mm 4 m/s 739 mmHg 86%
    Mostrar mais